Weather History for KHLX - November, 2013

Change the Weather History Date:

Monday, November 11, 2013

  Actual Average (KBLF) Record (KBLF)
Temperature  
Mean Temperature 48 °F 49 °F  
Max Temperature 60 °F 58 °F 75 °F (2006)
Min Temperature 35 °F 40 °F 18 °F (1973)
Degree Days  
Heating Degree Days 18 16  
Month to date heating degree days 161  
Since 1 July heating degree days 525  
Cooling Degree Days 0 0  
Month to date cooling degree days 0  
Year to date cooling degree days 851  
Moisture  
Dew Point 20 °F    
Average Humidity 38    
Maximum Humidity 65    
Minimum Humidity 13    
Precipitation  
Precipitation 0.00 in 0.08 in 1.25 in (2002)
Month to date precipitation 0.95  
Year to date precipitation 34.98  
Snow  
Snow 0.00 in - - ()
Month to date snowfall  
Since 1 July snowfall  
Since 1 September snowfall  
Snow Depth -    
Sea Level Pressure  
Sea Level Pressure 30.24 in    
Wind  
Wind Speed 6 mph (SSW)    
Max Wind Speed 13 mph    
Max Gust Speed -    
Visibility 10 miles    
Events      
T = Trace of Precipitation, MM = Missing Value Source: NWS Daily Summary

Daily Weather History Graph

Daily Weather History Graph

Search for Another Location

Airport or City:

Trip Planner

Search our weather history database for the weather conditions in past years. The results will help you decide how hot, cold, wet, or windy it might be!

Date:

Astronomy

Nov. 11, 2013 Rise Set
Actual Time 6:57 AM EST 5:16 PM EST
Civil Twilight 6:30 AM EST 5:44 PM EST
Nautical Twilight 5:59 AM EST 6:15 PM EST
Astronomical Twilight 5:28 AM EST 6:45 PM EST
Moon 1:48 PM EST (11/11) 12:50 AM EST (11/11)
Length of Visible Light 11h 14m
Length of Day
10h 19m
Waxing Gibbous, 66% of the Moon is Illuminated
Nov 11
Waxing Gibbous
Nov 17
Full
Nov 25
Last Quarter
Dec 2
New
Dec 9
First Quarter

Hourly Weather History & Observations

Time (EST) Temp. Windchill Dew Point Humidity Pressure Visibility Wind Dir Wind Speed Gust Speed Precip Events Conditions
12:15 AM 41.0 °F 37.1 °F 23.0 °F 49% 30.28 in 10.0 mi NW 5.8 mph - N/A   Clear
12:35 AM 41.0 °F 34.7 °F 23.0 °F 49% 30.28 in 10.0 mi NNW 10.4 mph - N/A   Clear
12:55 AM 39.2 °F 33.0 °F 23.0 °F 52% 30.28 in 10.0 mi NNW 9.2 mph - N/A   Clear
1:15 AM 39.2 °F 31.6 °F 23.0 °F 52% 30.28 in 10.0 mi NW 12.7 mph - N/A   Clear
1:35 AM 39.2 °F 35.0 °F 23.0 °F 52% 30.29 in 10.0 mi NW 5.8 mph - N/A   Clear
1:55 AM 39.2 °F 37.0 °F 23.0 °F 52% 30.30 in 10.0 mi NW 3.5 mph - N/A   Clear
2:15 AM 39.2 °F - 23.0 °F 52% 30.30 in 10.0 mi Calm Calm - N/A   Clear
2:35 AM 39.2 °F 37.0 °F 23.0 °F 52% 30.30 in 10.0 mi WSW 3.5 mph - N/A   Clear
2:55 AM 39.2 °F - 23.0 °F 52% 30.29 in 10.0 mi Calm Calm - N/A   Clear
3:15 AM 37.4 °F 31.4 °F 23.0 °F 56% 30.29 in 10.0 mi WNW 8.1 mph - N/A   Clear
3:35 AM 39.2 °F 34.2 °F 23.0 °F 52% 30.29 in 10.0 mi NW 6.9 mph - N/A   Clear
3:55 AM 39.2 °F 34.2 °F 23.0 °F 52% 30.29 in 10.0 mi WNW 6.9 mph - N/A   Clear
4:15 AM 39.2 °F 37.0 °F 23.0 °F 52% 30.28 in 10.0 mi NW 3.5 mph - N/A   Clear
4:35 AM 37.4 °F - 23.0 °F 56% 30.29 in 10.0 mi Calm Calm - N/A   Clear
4:55 AM 37.4 °F 33.8 °F 23.0 °F 56% 30.29 in 10.0 mi WNW 4.6 mph - N/A   Clear
5:15 AM 37.4 °F 32.1 °F 23.0 °F 56% 30.29 in 10.0 mi NW 6.9 mph - N/A   Clear
5:35 AM 39.2 °F 35.0 °F 23.0 °F 52% 30.29 in 10.0 mi WNW 5.8 mph - N/A   Clear
5:55 AM 37.4 °F 32.8 °F 23.0 °F 56% 30.29 in 10.0 mi WNW 5.8 mph - N/A   Clear
6:15 AM 37.4 °F 32.8 °F 23.0 °F 56% 30.30 in 10.0 mi WNW 5.8 mph - N/A   Clear
6:35 AM 39.2 °F 35.0 °F 23.0 °F 52% 30.29 in 10.0 mi WNW 5.8 mph - N/A   Clear
6:55 AM 37.4 °F - 23.0 °F 56% 30.29 in 10.0 mi Calm Calm - N/A   Clear
7:15 AM 35.6 °F 32.8 °F 23.0 °F 60% 30.30 in 10.0 mi South 3.5 mph - N/A   Clear
7:35 AM 35.6 °F 30.7 °F 24.8 °F 65% 30.30 in 10.0 mi South 5.8 mph - N/A   Clear
7:55 AM 35.6 °F 30.7 °F 24.8 °F 65% 30.30 in 10.0 mi South 5.8 mph - N/A   Clear
8:15 AM 37.4 °F 32.1 °F 24.8 °F 60% 30.31 in 10.0 mi SSW 6.9 mph - N/A   Clear
8:35 AM 37.4 °F 32.1 °F 24.8 °F 60% 30.31 in 10.0 mi SW 6.9 mph - N/A   Clear
8:55 AM 39.2 °F 35.0 °F 24.8 °F 56% 30.31 in 10.0 mi SSW 5.8 mph - N/A   Clear
9:15 AM 42.8 °F 40.1 °F 23.0 °F 46% 30.32 in 10.0 mi SW 4.6 mph - N/A   Clear
9:35 AM 44.6 °F 42.2 °F 23.0 °F 43% 30.32 in 10.0 mi WSW 4.6 mph - N/A   Clear
9:55 AM 46.4 °F 45.2 °F 23.0 °F 40% 30.32 in 10.0 mi SW 3.5 mph - N/A   Clear
10:15 AM 48.2 °F - 21.2 °F 34% 30.33 in 10.0 mi SW 4.6 mph - N/A   Clear
10:35 AM 51.8 °F - 21.2 °F 30% 30.33 in 10.0 mi West 3.5 mph - N/A   Clear
10:55 AM 53.6 °F - 19.4 °F 26% 30.32 in 10.0 mi Calm Calm - N/A   Clear
11:15 AM 53.6 °F - 19.4 °F 26% 30.31 in 10.0 mi SW 6.9 mph - N/A   Clear
11:35 AM 55.4 °F - 17.6 °F 23% 30.30 in 10.0 mi SSW 4.6 mph - N/A   Clear
11:55 AM 57.2 °F - 15.8 °F 20% 30.29 in 10.0 mi SSW 6.9 mph - N/A   Clear
12:15 PM 57.2 °F - 6.8 °F 13% 30.27 in 10.0 mi South 5.8 mph - N/A   Clear
12:35 PM 59.0 °F - 10.4 °F 15% 30.25 in 10.0 mi South 4.6 mph - N/A   Clear
12:55 PM 59.0 °F - 15.8 °F 19% 30.24 in 10.0 mi SSE 4.6 mph - N/A   Clear
1:15 PM 60.8 °F - 15.8 °F 17% 30.22 in 10.0 mi South 6.9 mph - N/A   Clear
1:35 PM 60.8 °F - 17.6 °F 19% 30.22 in 10.0 mi South 6.9 mph - N/A   Clear
1:55 PM 60.8 °F - 15.8 °F 17% 30.21 in 10.0 mi SSE 8.1 mph - N/A   Clear
2:15 PM 60.8 °F - 17.6 °F 19% 30.21 in 10.0 mi SSE 5.8 mph - N/A   Clear
2:35 PM 60.8 °F - 17.6 °F 19% 30.21 in 10.0 mi South 5.8 mph - N/A   Clear
2:55 PM 60.8 °F - 17.6 °F 19% 30.19 in 10.0 mi South 4.6 mph - N/A   Clear
3:15 PM 59.0 °F - 15.8 °F 19% 30.19 in 10.0 mi South 6.9 mph - N/A   Clear
3:35 PM 57.2 °F - 15.8 °F 20% 30.19 in 10.0 mi South 8.1 mph - N/A   Clear
3:55 PM 57.2 °F - 17.6 °F 21% 30.19 in 10.0 mi SSE 6.9 mph - N/A   Clear
4:15 PM 57.2 °F - 17.6 °F 21% 30.20 in 10.0 mi SSE 6.9 mph - N/A   Clear
4:35 PM 55.4 °F - 19.4 °F 25% 30.19 in 10.0 mi SSE 5.8 mph - N/A   Clear
4:55 PM 55.4 °F - 19.4 °F 25% 30.19 in 10.0 mi SSE 8.1 mph - N/A   Clear
5:15 PM 53.6 °F - 17.6 °F 24% 30.19 in 10.0 mi SSE 4.6 mph - N/A   Clear
5:35 PM 51.8 °F - 17.6 °F 26% 30.18 in 10.0 mi South 4.6 mph - N/A   Clear
5:55 PM 51.8 °F - 19.4 °F 28% 30.19 in 10.0 mi South 8.1 mph - N/A   Clear
6:15 PM 51.8 °F - 19.4 °F 28% 30.19 in 10.0 mi South 5.8 mph - N/A   Clear
6:35 PM 50.0 °F - 21.2 °F 32% 30.19 in 10.0 mi South 5.8 mph - N/A   Clear
6:55 PM 50.0 °F - 21.2 °F 32% 30.19 in 10.0 mi South 5.8 mph - N/A   Clear
7:15 PM 48.2 °F - 21.2 °F 34% 30.19 in 10.0 mi South 5.8 mph - N/A   Clear
7:35 PM 48.2 °F - 23.0 °F 37% 30.18 in 10.0 mi SSE 5.8 mph - N/A   Clear
7:55 PM 48.2 °F - 23.0 °F 37% 30.18 in 10.0 mi South 5.8 mph - N/A   Clear
8:15 PM 48.2 °F - 21.2 °F 34% 30.17 in 10.0 mi South 5.8 mph - N/A   Clear
8:35 PM 48.2 °F - 21.2 °F 34% 30.17 in 10.0 mi South 6.9 mph - N/A   Clear
8:55 PM 48.2 °F - 21.2 °F 34% 30.16 in 10.0 mi South 6.9 mph - N/A   Clear
9:15 PM 48.2 °F - 21.2 °F 34% 30.16 in 10.0 mi South 6.9 mph - N/A   Clear
9:35 PM 46.4 °F 43.5 °F 21.2 °F 37% 30.16 in 10.0 mi SSW 5.8 mph - N/A   Clear
9:55 PM 48.2 °F - 19.4 °F 32% 30.17 in 10.0 mi SSW 8.1 mph - N/A   Clear
10:15 PM 48.2 °F - 17.6 °F 30% 30.16 in 10.0 mi SSW 5.8 mph - N/A   Clear
10:35 PM 48.2 °F - 17.6 °F 30% 30.16 in 10.0 mi SSW 4.6 mph - N/A   Clear
10:55 PM 48.2 °F - 17.6 °F 30% 30.15 in 10.0 mi SSW 4.6 mph - N/A   Clear
11:15 PM 46.4 °F - 19.4 °F 34% 30.16 in 10.0 mi Calm Calm - N/A   Clear
11:35 PM 46.4 °F 45.2 °F 19.4 °F 34% 30.15 in 10.0 mi SW 3.5 mph - N/A   Scattered Clouds
11:55 PM 46.4 °F 44.3 °F 19.4 °F 34% 30.15 in 10.0 mi SSW 4.6 mph - N/A   Overcast